Regional Weather Roundup
Issued by NWS

Home | Current Version | Previous Version | Text Only | Print | Product List | Glossary Off
Versions: 1 2 3 4 5 6 7 8 9 10 11 12 13 14 15 16 17 18 19 20 21 22 23 24 25 26 27 28 29 30 31 32 33 34 35 36 37 38 39 40 41 42 43 44 45 46 47 48 49 50

739
ASUS43 KDMX 191501
RWRIA

WEATHER ROUNDUP FOR IOWA
NATIONAL WEATHER SERVICE DES MOINES IA
1000 AM CDT TUE SEP 19 2017

NOTE: "FAIR" INDICATES FEW OR NO CLOUDS BELOW 12,000 FEET WITH NO
SIGNIFICANT WEATHER AND/OR OBSTRUCTIONS TO VISIBILITY.

* - THESE STATIONS ARE NOT NWS STATIONS...THUS NOT UNDER NWS
QUALITY CONTROL.  THEY ALSO DO NOT REPORT WEATHER SUCH
AS PRECIPITATION OR FOG.

IAZ001>003-012>014-020>022-031>034-043>046-191600-
   NORTHWEST IOWA

CITY           SKY/WX    TMP DP  RH WIND       PRES   REMARKS
CARROLL *      CLOUDY    68  66  94 SE12G18   29.86S
CHEROKEE *     CLOUDY    68  67  94 S17G23    29.83S
DENISON *      CLOUDY    68  66  94 SE8G15    29.86S FOG
LE MARS *      CLOUDY    68  66  94 SE15      29.79S FOG
ORANGE CITY *  CLOUDY    68  68 100 SE9G16    29.81S FOG
SHELDON *      CLOUDY    68  66  94 SE17G23   29.80S
SIOUX CITY     CLOUDY    68  68 100 SE13G18   29.78F FOG
SPENCER        CLOUDY    67  65  93 SE15      29.84F
STORM LAKE *   MOSUNNY   68  64  88 SE12G20   29.85S
$$

IAZ055>058-069>071-079>083-090>094-191600-
   SOUTHWEST IOWA

CITY           SKY/WX    TMP DP  RH WIND       PRES   REMARKS
ATLANTIC *     CLOUDY    70  66  88 S9        29.86S
AUDUBON *      CLOUDY    70  66  88 SE9       29.87S
CLARINDA *     PTSUNNY   72  70  94 S7G15     29.89R
COUNCIL BLFS * CLOUDY    70  70 100 SE16      29.83F
CRESTON *      CLOUDY    68 -40   1 S13G21    29.91R HAZE
HARLAN  *      CLOUDY    68  68 100 S9        29.88S FOG
LAMONI         FOG       67  67 100 SE9       29.91R VSB 1/2
RED OAK *      MOSUNNY   73  68  83 SE9       29.85S
SHENANDOAH *   MOSUNNY   73  68  83 SE8G17    29.85S
$$

IAZ047>049-059>061-072>074-084-191600-
   CENTRAL IOWA

CITY           SKY/WX    TMP DP  RH WIND       PRES   REMARKS
AMES           FOG       65  65 100 SE9       29.91S VSB 3/4
ANKENY *       CLOUDY    66  66 100 SE12      29.91S
BOONE *        FOG       64  64 100 SE12      29.90R VSB 3/4
CHARITON *     CLOUDY    66  66 100 SE6       29.92R FOG
DES MOINES     CLOUDY    65  65 100 SE8       29.90R FOG
GRINNELL*      CLOUDY    65  64  97 E8        29.95R FOG
KNOXVILLE *    CLOUDY    66  66 100 SE8G16    29.91S FOG
MARSHALLTOWN   MOSUNNY   69  67  93 SE12      29.92S
NEWTON *       CLOUDY    68  66  94 SE12      29.92F FOG
PELLA *        CLOUDY    67  66  97 SE7       29.94S FOG
PERRY *        CLOUDY    66  65  98 SE8       29.89S FOG
$$

IAZ004>006-015-016-023>025-035-036-191600-
   NORTH CENTRAL IOWA

CITY           SKY/WX    TMP DP  RH WIND       PRES   REMARKS
ALGONA *       CLOUDY    64  64 100 SE9       29.88F FOG
CLARION *      FOG       64  64 100 SE13G18   29.91S VSB 3/4
ESTHERVILLE    CLOUDY    64  64 100 SE13      29.86S FOG
FORT DODGE *   CLOUDY    67  65  93 SE9       29.89F
MASON CITY     CLOUDY    64  64 100 SE10      29.94R FOG
FOREST CITY *  CLOUDY    64  64 100 SE9       29.91S
IOWA FALLS *   CLOUDY    67  67 100 SE14      29.93S
$$

IAZ007>011-017>019-026>030-037>042-050>054-066-191600-
   NORTHEAST IOWA

CITY           SKY/WX    TMP DP  RH WIND       PRES   REMARKS
CEDAR RAPIDS   FOG       64  64 100 SE6       29.95R VSB 1/2
CHARLES CITY * MOSUNNY   68  68 100 SE8       29.95S
CLINTON *      CLOUDY    63  62  97 E7        29.97S FOG
DECORAH *      FOG       61  61 100 E5        29.95S VSB 3/4
DUBUQUE        FOG       61  61 100 CALM      29.98S VSB 1/2
MONTICELLO *   FOG       63  63 100 CALM      29.97R VSB 1/4
OELWEIN *      FOG       63  63 100 SE7       29.96S VSB<1/4
WATERLOO       CLOUDY    63  63 100 E6        29.93S FOG
$$

IAZ064-065-067-068-078-191600-
   EAST CENTRAL IOWA

CITY           SKY/WX    TMP DP  RH WIND       PRES   REMARKS
DAVENPORT      SUNNY     69  63  81 E5        29.98S
IOWA CITY      CLOUDY    66  65  96 E6        29.97R FOG
MUSCATINE *    CLOUDY    66  66 100 CALM      29.96S FOG
QUAD CITIES    PTSUNNY   67  62  84 E3        29.96S HAZE
$$

IAZ062-063-075>077-085>089-095>099-191600-
   SOUTHEAST IOWA

CITY           SKY/WX    TMP DP  RH WIND       PRES   REMARKS
BURLINGTON     FOG       65  65 100 SE5       29.96R VSB 1/4
FAIRFIELD *    FOG       68  68 100 S5        29.95R VSB<1/4
FORT MADISON * CLOUDY    66  66 100 S6        29.97R FOG
KEOKUK *       CLOUDY    68  68 100 SE3       29.96R FOG
OSKALOOSA *    FOG       64  64  99 S6        29.95R VSB<1/4
OTTUMWA        FOG       67  66  97 SE6       29.94R VSB 1
WASHINGTON *   FOG       66  66 100 SE6       29.96S VSB 1/4
$$

ABBREVIATIONS USED IN REMARKS
   TC - TEMPERATURES IN CELSIUS
  WCI - WIND CHILL INDEX
   HX - HEAT INDEX
  VSB - VISIBILITY
$$





USA.gov is the U.S. government's official web portal to all federal, state and local government web resources and services.